Overview Statistics Trail Chart Weather Telemetry Raw packets
 

This is the latest recevied weather packets stored in our database for station/object W6MAF. If no packets are shown the sender has not sent any weather packets the latest 10 day(s).

<< 40 41 42 43 44 45 46 >>
Time Temp. Humidity Pressure Rain* Wind** Luminosity Snow
1788385156 26.67° C 4% - 0 mm 0.45 m/s, 218° - -
1788384858 26.67° C 4% - 0 mm 0.45 m/s, 173° - -
1788384560 26.67° C 4% - 0 mm 2.24 m/s, 208° - -
1788384263 26.67° C 4% - 0 mm 0 m/s - -
1788383965 26.67° C 4% - 0 mm 1.79 m/s, 201° - -
1788383667 26.67° C 4% - 0 mm 0.89 m/s, 233° - -
1788383366 26.67° C 4% - 0 mm 0 m/s - -
1788383068 26.67° C 4% - 0 mm 0 m/s - -
1788382771 26.67° C 4% - 0 mm 0 m/s - -
1788382473 26.67° C 4% - 0 mm 1.79 m/s, 174° - -
1788382175 26.67° C 4% - 0 mm 1.34 m/s, 195° - -
1788381878 26.11° C 4% - 0 mm 0 m/s - -
1788381576 26.11° C 4% - 0 mm 0.45 m/s, 198° - -
1788381279 26.11° C 4% - 0 mm 0.89 m/s, 239° - -
1788380981 26.11° C 4% - 0 mm 0.89 m/s, 205° - -
1788380683 26.11° C 5% - 0 mm 0 m/s - -
1788380386 26.11° C 5% - 0 mm 1.34 m/s, 181° - -
1788380088 26.11° C 4% - 0 mm 0.45 m/s, 233° - -
1788379787 26.11° C 4% - 0 mm 3.13 m/s, 250° - -
1788379489 25.56° C 4% - 0 mm 0 m/s - -
1788379218 25.56° C 5% - 0 mm 0 m/s - -
1788378894 25.56° C 5% - 0 mm 0 m/s - -
1788378596 25° C 4% - 0 mm 0.45 m/s, 203° - -
1788378298 25° C 5% - 0 mm 0.45 m/s, 200° - -
1788377997 25° C 4% - 0 mm 3.13 m/s, 210° - -

* Rain latest hour (hover to see other rain measurements)
** Current wind speed in m/s (hover to see current wind gust speed)